STARLINK-1471, 45735

Orbit data source: Space-Track

STARLINK-1471, 45735 is a payload satellite owned by SpaceX/Seattle (US) in LEO that was launched on Sat, 13 Jun 2020 UTC via an FALCON 9 launch vehicle from the Air Force Eastern Test Range (AFETR). Payload-class satellites include a variety of spacecraft equipped with specific instruments for various scientific and technological missions. These include communications satellites like Starlink; space stations such as the ISS; scientific satellites like the Hubble; Earth observation satellites from companies like Planet Labs, Umbra, and HawkEye 360; GPS; miniature CubeSats for education and research; and military/defense satellites.

Loading next visibility...
Identifier
45735, 2020-038F
Orbit
LEO
Country
Flag of USUS
Related business
Manufacturer
SpaceX/Seattle
Mission
Partially operational Commercial Communications
Bus & Motor
STARLINK, Unknown motor
Mass
260 kg wet, ~248 kg dry
Launch date (UTC)
2020-06-13 (6 years ago)
Launch vehicle
FALCON 9
Launch site
Air Force Eastern Test Range (AFETR)
Object type
Payload
Rocket body
Debris
Shape & HBR
Box + 1 Pan, 10.1 m
Radar Cross Section
13.562 m², Large (>1 m²)

Expand to show TLE details & history
Last TLE update: 1 day ago

TLE from 1 day ago
0 STARLINK-1471
1 45735U 20038F   26033.06603758  .00021168  00000-0  43803-3 0  9995
2 45735  53.0500 312.3924 0003262 111.2295 248.9060 15.45761982312011
Epoch: 2026-02-02T01:35Z
TLE epoch observation values (Epoch: 2026-02-02T01:35:05.646Z)
Latitude
-0.00002°
Longitude
156.35219°
Altitude
430.834 km
Speed
7.654 km/s
True Right ascension
20h 49m 34s
True Declination
0° 00' 00"
Sunlit
Object was in daylight at epoch
Visualization orbit readout
Latitude
Unknown
Longitude
Unknown
Altitude
Unknown
Speed
Unknown
Apparent Right ascension
Unknown
Apparent Declination
Unknown
Sunlit
N/A
Visualization observer readout
Local Sidereal Time
07:48:03
Azimuth
Unknown
Elevation
Unknown
Doppler factor
Unknown
Orbital elements
Apogee altitude
431.637 km
Perigee altitude
427.195 km
Semi-major axis
6,807.553 km
Eccentricity
0.00033
Inclination
53.05°
RAAN
312.3924°
Arg. of periapsis
111.2295°
True anomaly
248.87113°
Mean anomaly
248.906°
Eccentric anomaly
248.88856°
Mean motion
3.86417 °/min
Orbital period
93.16 mins
BSTAR
0.00043803
Loading maneuver chart data...
Computing Atmospheric mass density...
Loading historical data...
Loading historical data...
Loading historical data...
Loading historical data...
Loading historical data...
Loading historical data...
Loading historical data...

Documentation

Showing up to 5 results
|